STARLINK-11154 [DTC]

Last updated on Mon Oct 14 2024 00:02:03 GMT+0000 (Coordinated Universal Time)

1 61059U 24164K 24287.33029856 .00000257 00000+0 69724-5 0 9993 2 61059 53.1579 317.2710 0001205 65.0385 295.0758 15.69730699 5971
UTC large
Height (km)
Speed (km/s)
/
Latitude / Longitude
Inclination (degrees)
Orbital Period (minutes)
Azimuth
Elevation
Range (km)
Doppler Factor

Next 0 passes for location: London (51.5072 / 0.1276)

Sorry there are no passes over London.